Погода Усть-Щугор

Погода Усть-Щугор : погода сейчас, прогноз погоды и архив. Всё, что Вы хотите узнать о погоде Усть-Щугор!

Поиск расширенной информации на нашем сайте:

Другие новости

Новости СМИ2

Главная страница сайта

Новости сайта

02.10.2013

Напоминаем, что на нашем новом сайте вы можете получить высокодетализированные прогнозы погоды по пунктам России, СНГ и мира (включающие важные для авиации метеовеличины, такие как направление и скорость ветра, видимость, явления погоды, количество и форма облачности, нижняя и верхняя граница облачности), а также ознакомиться с разнообразными материалами по авиационной метеорологии и подборкой полезных ссылок на эту тему.

Сайт Метеоцентр.Азия посвящён разработке технологий оптимизации авиаметеорологического обслуживания, включая проектирование и перспективное создание нескольких автоматизированных авиаметеорологических систем:
- система выпуска высокодетальных прогностических карт явлений погоды для нижнего воздушного пространства по России и ближнему зарубежью;
- система верификации прогнозов TAF (выпускаемых синоптиками официальных АМСГ РФ и ближнего зарубежья) и AUTOTAF (выпускаемых сайтом Метеоцентр.Азия) - выявление ошибок, онлайн-сопоставление с фактической погодой METAR, автоматическое внесение коррективов в прогнозы при резком отклонении фактической погоды от прогноза, подсчёт оправдываемости прогнозов по элементам и в целом;
- система обработки, анализа и отображения авиаметеорологической информации для применения провайдерами метеорологической информации.

Рекомендуем: Устройство автосервиса мелкий кузовной ремонт клипарт аэрография.

Погода Усть-Щугор - сегодня

Время (UTC), дата Ветер
(°,м/с) 
Видим.   Явления Облачность Т
(°С)
Тd
(°С)
f(%) Тe
(°С)
Pmin
(гПа)
dP
(гПа)
Po
(мм)
O2
(г/м3)
Тmin Tmax R s Состояние
почвы
06 19.03.17 200 (Ю) 20000 м    9/3 1000 м средняя 
[Sc|Ac As]
-0.2 -4.3 74 -4  1016.9  756  305  -0.8         
09 19.03.17 210 (ЮЗ) 8-11{11}  20000 м    10/0 средняя, верхняя 
[Ac As|Cs]
+1.2 -3.9 69 -3  1017.4  0.6  756  304           
12 19.03.17 210 (ЮЗ) 7{11}  20000 м    10/0 верхняя 
[Cs]
+2.7 -3.8 62 -1  1017.3  756  302           
15 19.03.17 200 (Ю) 20000 м    10/0 средняя 
[As trans]
+1.6 -4.5 64 -1  1017.9  0.5  757  304    +2.7       
03 20.03.17 190 (Ю) 5{10}  20000 м    9/0 средняя 
[Ac As]
-2.2 -12.1 47 -6  1017.6  0.1  756  308  -2.3      54  неравномерный
мокрый или
старый снег
100% 
06 20.03.17 200 (Ю) 20000 м    4/0 верхняя 
[Ci fib]
-1.5 -11.8 45 -5  1017.7  756  308  -2.4         
09 20.03.17 210 (ЮЗ) 5{11}  20000 м    3/0 средняя, верхняя 
[Ac cast|Cc]
+1.5 -9.5 44 -1  1017.1  -0.4  756  304           
12 20.03.17 200 (Ю) 3{11}  20000 м    10/10 1110 м 
[Sc]
+2.2 -5.8 55 +1  1017.8  0.7  756  303           
15 20.03.17 220 (ЮЗ) 7-10{11}  20000 м    10/10 1110 м 
[Sc]
+3.3 -3.9 59 1018.6  0.8  757  302    +3.4       
03 21.03.17 190 (Ю) 20000 м    10/0 средняя, верхняя 
[Ac As|Ci fib]
-1.1 -6.3 68 -3  1021.8  0.5  759  308  -1.3      53  неравномерный
мокрый или
старый снег
100% 
06 21.03.17 190 (Ю) 20000 м    10/8 800 м средняя 
[Sc|Ac As]
+0.6 -4.2 70 -2  1021.6  -0.2  759  306           
09 21.03.17 200 (Ю) 6{11}  20000 м    10/0 средняя 
[Ac As]
+2 -3.9 65 -1  1020.9  -0.6  759  304           
12 21.03.17 200 (Ю) 7{11}  20000 м    10/0 средняя 
[Ac As]
+3.9 -4.1 56 +1  1020.2  -0.7  758  302           
15 21.03.17 210 (ЮЗ) 6{10}  20000 м    10/0 средняя 
[Ac As]
+3.1 -3.9 60 1020.4  0.2  758  303    +4.1       
03 22.03.17 180 (Ю) 20000 м    10/0 средняя 
[Ac As]
+0.2 -6.3 62 -2  1017.9  -1.7  756  305  -0.2      53  неравномерный
сухой снег
100% 
06 22.03.17 200 (Ю) 6{13}  20000 м    10/0 средняя 
[Ac As]
+0.6 -6.7 58 -3  1017.1  -0.8  756  305           
09 22.03.17 210 (ЮЗ) 7{13}  20000 м    10/10 1200 м 
[Sc]
+1.7 -7.1 52 -2  1017.4  0.4  756  304           
12 22.03.17 210 (ЮЗ) 6{10}  20000 м    9/8 1320 м средняя 
[Sc|Ac lent]
+3.2 -5 55 1017.5  0.2  756  302           
15 22.03.17 190 (Ю) 20000 м    10/10 1350 м 
[Sc]
+3.1 -3.7 61 +2  1017.3  -0.2  756  302    +3.4       
03 23.03.17 190 (Ю) 20000 м    10/10 1410 м 
[Sc]
+2.2 -7.4 49 -1  1013.1  -2.2  753  302  +1.2      52  неравномерный
мокрый или
старый снег
100% 
06 23.03.17 200 (Ю) 7-11{12}  20000 м    10/0 средняя 
[Ac As]
+2.5 -6.4 52 -1  1010.9  -2.2  751  301           
09 23.03.17 200 (Ю) 8-13{13}  20000 м    10/0 средняя 
[Ac As]
+3.6 -4.8 54 1008.7  -2.1  750  299           
12 23.03.17 220 (ЮЗ) 5{14}  4000 м  слаб. снег  10/0 средняя 
[Ac As]
+1.7 -1.8 78 -1  1008.8  -0.1  750  300           
15 23.03.17 200 (Ю) 5{10}  4000 м  слаб. ливневой снег  10/10 330 м кучево-дожд. 
[Cb cap]
+0.4 -0.3 95 -3  1009.1  0.2  751  302    +3.7  0.6     
03 24.03.17 230 (ЮЗ) 20000 м    10/10 240 м кучево-дожд. 
[Cb cap]
+0.3 -0.3 96 -1  1006.6  -0.2  748  301  +0.1    52  неравномерный
мокрый или
старый снег
100% 
Время (UTC), дата Ветер
(°,м/с) 
Видим.   Явления Облачность Т
(°С)
Тd
(°С)
f(%) Тe
(°С)
Pmin
(гПа)
dP
(гПа)
Po
(мм)
O2
(г/м3)
Тmin Tmax R s Состояние
почвы

Для получения пояснительной информации подведите курсор к названию столбца.

ПОГОДА Усть-Щугор - архив

Всё, что Вы хотите узнать о погоде Усть-Щугор - удобно и подробно!

Выберите нужную дату (начиная с 1 января 2015* года) и нажмите кнопку "Найти".
Будут отображены архивные сводки погоды по пункту Усть-Щугор, начиная с указанной даты.


Отображать данные в формате CSV (для использования в таблицах Excel)


Внимание! Наш архив погоды предназначен исключительно для личного некоммерческого использования в познавательных целях. Если Вам необходимы официальные справки о состоянии погоды (для производственных, юридических, коммерческих и т.п. целей), обращайтесь в органы Росгидромета.

*Примечание: данная дата относится к архиву по метеостанциям СССР (Россия, СНГ, Балтия).
Архив по метеостанциям Зарубежной Европы и Азии (кроме Китая) хранится 10 дней, по другим регионам земного шара (Китай, Африка, Америка, Австралия, Океания) - 1 день.

Усть-Щугор - район местоположения метеостанции


Название, широта, долгота, высота метеостанции:
Усть-Щугор 64.3°ш. 57.6°д. 75 м над ур. моря [Российская Федерация]

Дополнительная информация

В oтличие oт бoльшинства пoгoдных сайтoв мы публикуем пoдрoбную метеoинфoрмацию в детальнoм прoфессиoнальнoм фoрмате.

Характеристики температуры и влажнoсти вoздуха измеряются на высoте 2 м в тени вдали oт зданий и деревьев.
Скoрoсть ветра измеряется на высoте 10 м (на урoвне рoста челoвека скoрoсть ветра ниже в 1.5-2 раза). Если метеoстанция нахoдится в гoрoде или в лесу, тo скoрoсть ветра занижена на 2-4 м/с пo сравнению с oткрытым местoм. Скoрoсть ветра над акватoриями крупных рек и oзёр, а также на вершинах хoлмoв на 2-5 м/с выше, чем в oбычных услoвиях.
Атмoсфернoе давление в разных тoчках местнoсти мoжет значительнo oтличаться oт давления на метеoстанции, в зависимoсти oт услoвий рельефа (при пoдъёме на 10 м давление пoнижается примернo на 1 мм рт.ст.).